CW9558 Weather Reports


time (UTC)temp
C
wind
direction
speed
KPH
gust
KPH
rain 1hr
cm
rain 24hr
cm
rain mn
cm
humidity
%
barometer
mb
20260507130853 8 347 3.2 9.7 0.00 0.00 0.00 68 1014.7
20260507130349 8 338 3.2 9.7 0.00 0.00 0.00 68 1014.7
20260507125838 7 334 4.8 9.7 0.00 0.00 0.00 66 1014.6
20260507125330 7 23 0.0 6.4 0.00 0.00 0.00 66 1014.6
20260507124839 7 22 1.6 6.4 0.00 0.00 0.00 68 1014.6
20260507124326 7 360 1.6 8.0 0.00 0.00 0.00 74 1014.6
20260507123835 6 360 4.8 9.7 0.00 0.00 0.00 73 1014.5
20260507123347 6 360 4.8 9.7 0.00 0.00 0.00 75 1014.5
20260507122835 5 30 0.0 0.0 0.00 0.00 0.00 78 1014.6
20260507122328 5 15 0.0 0.0 0.00 0.00 0.00 79 1014.5
20260507121837 5 15 0.0 0.0 0.00 0.00 0.00 80 1014.7
20260507121350 5 15 0.0 0.0 0.00 0.00 0.00 81 1014.7
20260507120829 4 15 0.0 0.0 0.00 0.00 0.00 81 1014.8
20260507120403 4 15 0.0 0.0 0.00 0.00 0.00 82 1014.8
20260507115841 4 15 0.0 0.0 0.00 0.00 0.00 82 1014.6
20260507115335 4 16 0.0 0.0 0.00 0.00 0.00 83 1014.6
20260507114843 3 355 0.0 0.0 0.00 0.00 0.00 83 1014.6
20260507114333 3 355 0.0 0.0 0.00 0.00 0.00 83 1014.6
20260507113842 3 355 0.0 0.0 0.00 0.00 0.00 84 1014.6
20260507113332 3 355 0.0 0.0 0.00 0.00 0.00 83 1014.6
20260507112836 3 355 0.0 0.0 0.00 0.00 0.00 82 1014.6
20260507112328 3 355 0.0 0.0 0.00 0.00 0.00 82 1014.5
20260507111837 3 355 0.0 0.0 0.00 0.00 0.00 82 1014.4
20260507111330 3 355 0.0 0.0 0.00 0.00 0.00 82 1014.4
20260507110838 3 355 0.0 0.0 0.00 0.00 0.00 81 1014.4
20260507110351 3 355 0.0 0.0 0.00 0.00 0.00 81 1014.5
20260507105838 3 355 0.0 0.0 0.00 0.00 0.00 81 1014.4
20260507105351 3 355 0.0 0.0 0.00 0.00 0.00 81 1014.3
20260507104853 3 355 0.0 0.0 0.00 0.00 0.00 80 1014.3
20260507104338 3 355 0.0 0.0 0.00 0.00 0.00 80 1014.2
20260507103900 4 355 0.0 0.0 0.00 0.00 0.00 79 1014.2
20260507103352 4 355 0.0 0.0 0.00 0.00 0.00 79 1014.1
20260507102832 4 355 0.0 0.0 0.00 0.00 0.00 79 1014.2
20260507102347 4 355 0.0 0.0 0.00 0.00 0.00 78 1014.1
20260507101845 4 355 0.0 0.0 0.00 0.00 0.00 78 1014.2
20260507101336 4 355 0.0 0.0 0.00 0.00 0.00 78 1014.2
20260507100836 5 355 0.0 0.0 0.00 0.00 0.00 78 1014.2
20260507100348 5 355 0.0 0.0 0.00 0.00 0.00 77 1014.1
20260507095836 5 355 0.0 0.0 0.00 0.00 0.00 76 1014.3
20260507095338 5 355 0.0 0.0 0.00 0.00 0.00 75 1014.3
20260507094843 5 355 0.0 0.0 0.00 0.00 0.00 73 1014.2
20260507094334 5 355 0.0 4.8 0.00 0.00 0.00 72 1014.2
20260507093841 5 355 3.2 4.8 0.00 0.00 0.00 71 1014.2
20260507093330 5 355 3.2 9.7 0.00 0.00 0.00 69 1014.1
20260507092837 5 355 6.4 9.7 0.00 0.00 0.00 67 1014.1
20260507092329 5 355 4.8 8.0 0.00 0.00 0.00 67 1014.0
20260507091836 6 355 4.8 8.0 0.00 0.00 0.00 66 1014.1
20260507091347 6 355 4.8 8.0 0.00 0.00 0.00 65 1014.0
20260507090832 6 355 4.8 8.0 0.00 0.00 0.00 66 1014.0
20260507090336 6 355 4.8 8.0 0.00 0.00 0.00 66 1014.0
20260507085828 6 355 3.2 9.7 0.00 0.00 0.00 66 1013.9
20260507085340 6 355 4.8 6.4 0.00 0.00 0.00 66 1014.1
20260507084826 6 342 4.8 9.7 0.00 0.00 0.00 65 1014.1
20260507084358 6 329 6.4 9.7 0.00 0.00 0.00 66 1014.1
20260507083844 6 355 4.8 16.1 0.00 0.00 0.00 66 1014.0
20260507083334 6 355 6.4 16.1 0.00 0.00 0.00 65 1014.1
20260507082841 6 344 4.8 9.7 0.00 0.00 0.00 65 1014.0
20260507082334 6 337 6.4 12.9 0.00 0.00 0.00 65 1014.0
20260507081836 6 348 3.2 8.0 0.00 0.00 0.00 65 1014.1
20260507081329 6 346 3.2 9.7 0.00 0.00 0.00 65 1014.0
20260507080837 6 348 4.8 9.7 0.00 0.00 0.00 65 1014.0
20260507080349 6 339 3.2 9.7 0.00 0.00 0.00 66 1014.1
20260507075839 6 338 4.8 12.9 0.00 0.00 0.00 65 1014.0
20260507075330 6 329 6.4 12.9 0.00 0.00 0.00 65 1014.0
20260507074834 6 338 6.4 14.5 0.00 0.00 0.00 65 1014.0
20260507074407 6 332 6.4 14.5 0.00 0.00 0.00 65 1013.9
20260507073842 6 349 6.4 14.5 0.00 0.00 0.00 64 1013.9
20260507073409 6 342 6.4 16.1 0.00 0.00 0.00 65 1013.9
20260507072901 6 332 8.0 16.1 0.00 0.00 0.00 65 1014.0
20260507072330 6 327 6.4 12.9 0.00 0.00 0.00 65 1014.1
20260507071837 6 341 4.8 14.5 0.00 0.00 0.00 65 1014.0
20260507071347 6 331 8.0 14.5 0.00 0.00 0.00 65 1013.9
20260507070840 6 319 8.0 14.5 0.00 0.00 0.00 66 1014.0
20260507070350 6 345 3.2 8.0 0.00 0.00 0.00 66 1014.1
20260507065837 6 346 4.8 9.7 0.00 0.03 0.00 66 1014.1
20260507065329 6 344 4.8 8.0 0.00 0.03 0.00 66 1014.0
20260507064837 7 345 4.8 9.7 0.00 0.03 0.00 66 1014.1
20260507064347 7 345 3.2 8.0 0.00 0.03 0.00 65 1014.2
20260507063825 7 350 4.8 12.9 0.00 0.03 0.00 65 1014.1
20260507063333 7 347 6.4 12.9 0.00 0.03 0.00 65 1014.2
20260507062838 7 337 4.8 9.7 0.00 0.03 0.00 65 1014.3
20260507062330 7 338 6.4 16.1 0.00 0.03 0.00 65 1014.3
20260507061834 7 319 8.0 16.1 0.00 0.03 0.00 65 1014.3
20260507061327 7 326 4.8 14.5 0.00 0.03 0.00 64 1014.3
20260507060834 7 327 4.8 16.1 0.00 0.03 0.00 65 1014.4
20260507060336 7 333 6.4 16.1 0.00 0.03 0.00 65 1014.4
20260507055831 7 323 11.3 16.1 0.00 0.13 0.00 65 1014.2
20260507055403 7 360 6.4 14.5 0.00 0.13 0.00 65 1014.1
20260507054837 7 340 4.8 9.7 0.00 0.13 0.00 66 1014.2
20260507054349 7 336 4.8 16.1 0.00 0.13 0.00 67 1014.2
20260507053836 7 342 6.4 12.9 0.00 0.13 0.00 67 1014.2
20260507053346 7 326 4.8 9.7 0.00 0.13 0.00 68 1014.2
20260507052844 7 332 6.4 14.5 0.00 0.13 0.00 69 1014.2
20260507052350 7 341 4.8 9.7 0.00 0.13 0.00 70 1014.2
20260507051838 7 330 4.8 16.1 0.00 0.13 0.00 70 1014.1
20260507051348 7 331 8.0 16.1 0.00 0.13 0.00 70 1014.1
20260507050825 7 335 4.8 8.0 0.00 0.13 0.00 72 1014.2
20260507050356 7 335 4.8 8.0 0.00 0.13 0.00 72 1014.2
20260507045906 6 336 4.8 9.7 0.00 0.20 0.00 73 1014.1
20260507045351 6 334 4.8 9.7 0.00 0.20 0.00 74 1014.1
20260507044902 6 335 3.2 8.0 0.00 0.20 0.00 75 1014.0
20260507044351 6 336 0.0 0.0 0.00 0.20 0.00 76 1014.0
20260507043902 6 336 0.0 0.0 0.00 0.20 0.00 77 1014.0
20260507043332 6 336 0.0 0.0 0.00 0.20 0.00 77 1014.0
20260507042837 6 336 0.0 0.0 0.00 0.20 0.00 78 1014.0
20260507042328 6 336 0.0 0.0 0.00 0.20 0.00 78 1013.8
20260507041858 6 336 0.0 0.0 0.00 0.20 0.00 78 1013.9
20260507041348 6 336 0.0 0.0 0.00 0.20 0.00 76 1013.9
20260507040834 6 336 0.0 0.0 0.00 0.20 0.00 76 1014.0
20260507040325 6 336 0.0 0.0 0.00 0.20 0.00 77 1013.9
20260507035835 7 336 0.0 0.0 0.00 0.30 0.20 78 1014.0
20260507035326 7 336 0.0 0.0 0.00 0.30 0.20 78 1013.9
20260507034828 7 336 0.0 0.0 0.00 0.30 0.20 78 1013.9
20260507034412 7 336 0.0 0.0 0.00 0.30 0.20 77 1013.9
20260507033851 7 336 0.0 0.0 0.00 0.30 0.20 77 1013.9
20260507033334 7 336 0.0 0.0 0.00 0.30 0.20 77 1013.9
20260507032844 7 336 0.0 0.0 0.00 0.30 0.20 77 1013.8
20260507032349 7 336 0.0 0.0 0.00 0.30 0.20 76 1013.9
20260507031828 7 336 0.0 0.0 0.00 0.30 0.20 76 1013.9
20260507031338 7 336 0.0 0.0 0.00 0.30 0.20 76 1014.0
20260507030855 7 336 0.0 0.0 0.00 0.30 0.20 74 1013.9
20260507030346 7 336 0.0 0.0 0.00 0.30 0.20 75 1013.8
20260507025836 7 336 0.0 0.0 0.00 0.41 0.20 75 1013.7
20260507025329 7 336 0.0 0.0 0.00 0.41 0.20 75 1013.8
20260507024838 7 336 0.0 0.0 0.00 0.41 0.20 75 1013.9
20260507024351 8 336 0.0 3.2 0.00 0.41 0.20 74 1013.8
20260507023854 8 336 0.0 3.2 0.00 0.41 0.20 73 1013.7
20260507023347 8 336 1.6 3.2 0.00 0.41 0.20 72 1013.6
20260507022833 8 336 0.0 3.2 0.00 0.41 0.20 70 1013.6
20260507022346 8 336 1.6 1.6 0.00 0.41 0.20 70 1013.6
20260507021854 9 336 0.0 3.2 0.00 0.41 0.20 69 1013.6
20260507021347 9 336 0.0 3.2 0.00 0.41 0.20 69 1013.6
20260507020827 9 336 1.6 3.2 0.00 0.41 0.20 68 1013.5
20260507020401 9 336 1.6 3.2 0.00 0.41 0.20 67 1013.5
20260507015838 10 336 1.6 3.2 0.00 0.46 0.20 67 1013.5
20260507015331 10 336 1.6 3.2 0.00 0.46 0.20 66 1013.4
20260507014839 10 336 1.6 3.2 0.00 0.46 0.20 66 1013.5
20260507014353 10 336 1.6 6.4 0.00 0.46 0.20 66 1013.4
20260507013831 10 336 3.2 6.4 0.00 0.46 0.20 65 1013.5
20260507013346 10 336 1.6 6.4 0.00 0.46 0.20 65 1013.5
20260507012850 10 336 3.2 8.0 0.00 0.46 0.20 64 1013.5
20260507012408 10 336 3.2 8.0 0.00 0.46 0.20 64 1013.5
20260507011855 10 334 4.8 6.4 0.00 0.46 0.20 63 1013.4
20260507011327 11 335 3.2 6.4 0.00 0.46 0.20 63 1013.3
20260507010836 11 335 3.2 6.4 0.00 0.46 0.20 63 1013.1
20260507010328 11 335 3.2 6.4 0.00 0.46 0.20 62 1013.0
20260507005827 11 333 3.2 6.4 0.00 0.56 0.20 62 1013.2
20260507005335 11 333 3.2 6.4 0.00 0.56 0.20 61 1013.2
20260507004857 11 332 4.8 6.4 0.00 0.56 0.20 60 1012.9
20260507004330 11 329 3.2 8.0 0.00 0.56 0.20 61 1012.9
20260507003838 11 327 3.2 8.0 0.00 0.56 0.20 60 1012.8
20260507003352 11 327 3.2 8.0 0.00 0.56 0.20 60 1012.7
20260507002855 12 325 4.8 9.7 0.00 0.56 0.20 59 1012.7
20260507002326 12 319 4.8 12.9 0.00 0.56 0.20 58 1012.6
20260507001835 12 319 6.4 11.3 0.00 0.56 0.20 58 1012.6
20260507001343 12 325 4.8 8.0 0.00 0.56 0.20 58 1012.5
20260507000839 12 323 4.8 8.0 0.00 0.56 0.20 58 1012.4
20260507000350 12 320 4.8 8.0 0.00 0.56 0.20 58 1012.5
20260506235839 12 321 4.8 12.9 0.00 0.69 0.20 57 1012.5
20260506235349 12 317 6.4 12.9 0.00 0.69 0.20 56 1012.5
20260506234827 12 323 6.4 16.1 0.00 0.69 0.20 55 1012.5
20260506234334 12 327 8.0 16.1 0.00 0.69 0.20 54 1012.5
20260506233835 12 311 9.7 17.7 0.00 0.69 0.20 55 1012.6
20260506233346 12 315 9.7 17.7 0.00 0.69 0.20 55 1012.6
20260506232857 12 316 9.7 19.3 0.00 0.69 0.20 54 1012.6
20260506232327 12 327 8.0 20.9 0.00 0.69 0.20 54 1012.6
20260506231835 12 342 12.9 20.9 0.00 0.69 0.20 53 1012.7
20260506231345 12 323 8.0 19.3 0.00 0.69 0.20 55 1012.7
20260506230825 12 312 8.0 12.9 0.00 0.69 0.20 56 1012.7
20260506230333 12 333 8.0 16.1 0.00 0.69 0.20 54 1012.6
20260506225833 12 306 8.0 16.1 0.00 0.76 0.20 54 1012.6
20260506225326 12 337 6.4 9.7 0.00 0.76 0.20 54 1012.7
20260506224833 12 355 4.8 14.5 0.00 0.76 0.20 53 1012.6
20260506224325 12 330 6.4 22.5 0.00 0.76 0.20 52 1012.7
20260506223832 13 327 9.7 22.5 0.00 0.76 0.20 55 1012.7
20260506223345 13 302 8.0 17.7 0.00 0.76 0.20 55 1012.7
20260506222848 12 346 4.8 16.1 0.00 0.76 0.20 52 1012.6
20260506222340 12 344 6.4 16.1 0.00 0.76 0.20 56 1012.6
20260506221902 12 328 8.0 16.1 0.00 0.76 0.20 54 1012.6
20260506221333 12 275 8.0 12.9 0.00 0.76 0.20 55 1012.7
20260506220840 12 336 6.4 17.7 0.00 0.76 0.20 56 1012.6
20260506220332 12 313 6.4 17.7 0.00 0.76 0.20 54 1012.5
20260506215832 12 313 9.7 20.9 0.00 0.84 0.20 54 1012.5
20260506215326 13 311 12.9 20.9 0.00 0.84 0.20 54 1012.4
20260506214831 13 313 8.0 14.5 0.00 0.84 0.20 53 1012.4
20260506214324 12 327 6.4 14.5 0.00 0.84 0.20 55 1012.2
20260506213833 12 319 8.0 12.9 0.00 0.84 0.20 57 1012.2
20260506213346 12 333 6.4 14.5 0.00 0.84 0.20 58 1012.2
20260506212834 12 298 11.3 16.1 0.00 0.84 0.20 55 1012.2
20260506212327 12 330 9.7 16.1 0.00 0.84 0.20 56 1012.4
20260506211836 12 313 6.4 14.5 0.00 0.84 0.20 58 1012.2
20260506211350 12 347 8.0 16.1 0.00 0.84 0.20 57 1012.4
20260506210826 12 331 6.4 12.9 0.00 0.84 0.20 56 1012.3
20260506210338 12 327 4.8 12.9 0.00 0.84 0.20 55 1012.3
20260506205837 12 329 6.4 16.1 0.00 0.91 0.20 60 1012.4
20260506205330 12 304 6.4 22.5 0.00 0.91 0.20 57 1012.6
20260506204839 13 300 8.0 22.5 0.00 0.91 0.20 56 1012.4
20260506204352 13 293 6.4 17.7 0.00 0.91 0.20 61 1012.4
20260506203832 12 306 9.7 16.1 0.00 0.91 0.20 57 1012.5
20260506203345 12 309 9.7 17.7 0.00 0.91 0.20 57 1012.6
20260506202840 13 36 6.4 19.3 0.00 0.91 0.20 55 1012.6
20260506202333 12 292 11.3 19.3 0.00 0.91 0.20 57 1012.6
20260506201839 12 329 9.7 17.7 0.00 0.91 0.20 56 1012.6
20260506201332 12 325 11.3 16.1 0.00 0.91 0.20 57 1012.6
20260506200838 12 331 8.0 16.1 0.00 0.91 0.20 58 1012.5
20260506200331 12 311 6.4 14.5 0.00 0.91 0.20 58 1012.5
20260506195848 12 346 6.4 14.5 0.00 0.91 0.20 58 1012.6
20260506195335 12 305 8.0 14.5 0.00 0.91 0.20 58 1012.6
20260506194824 12 15 6.4 16.1 0.00 0.91 0.20 55 1012.7
20260506194409 12 320 8.0 16.1 0.00 0.91 0.20 56 1012.8
20260506193831 12 304 6.4 16.1 0.00 0.91 0.20 56 1012.9
20260506193334 12 311 9.7 16.1 0.00 0.91 0.20 57 1012.8
20260506192843 12 309 6.4 16.1 0.00 0.91 0.20 58 1012.7
20260506192334 12 293 9.7 16.1 0.00 0.91 0.20 57 1012.8
20260506191912 12 342 8.0 16.1 0.00 0.91 0.20 55 1012.8
20260506191407 12 335 8.0 14.5 0.00 0.91 0.20 57 1012.8
20260506190826 12 294 6.4 20.9 0.00 0.91 0.20 56 1012.7
20260506190336 12 268 9.7 20.9 0.00 0.91 0.20 57 1012.8
20260506185835 12 317 6.4 14.5 0.00 1.07 0.20 58 1012.8
20260506185349 12 295 8.0 14.5 0.00 1.07 0.20 57 1012.6
20260506184828 12 309 4.8 14.5 0.00 1.07 0.20 57 1012.7
20260506184334 12 316 4.8 9.7 0.00 1.07 0.20 58 1012.8
20260506183838 12 23 4.8 9.7 0.00 1.07 0.20 58 1012.8
20260506183329 12 47 3.2 14.5 0.00 1.07 0.20 59 1012.7
20260506182836 12 39 4.8 16.1 0.00 1.07 0.20 57 1012.8
20260506182348 12 327 9.7 16.1 0.00 1.07 0.20 55 1012.9
20260506181833 12 302 8.0 14.5 0.00 1.07 0.20 58 1012.8
20260506181346 12 324 4.8 9.7 0.00 1.07 0.20 61 1012.9
20260506180849 12 355 3.2 6.4 0.00 1.07 0.20 58 1012.9
20260506180408 11 355 0.0 3.2 0.00 1.07 0.20 56 1012.7
20260506175838 11 355 1.6 4.8 0.00 1.30 0.20 58 1012.7
20260506175351 11 355 3.2 6.4 0.00 1.30 0.20 59 1013.0
20260506174827 11 355 3.2 8.0 0.00 1.30 0.20 59 1013.2
20260506174336 11 355 3.2 8.0 0.00 1.30 0.20 58 1013.1
20260506173840 11 355 4.8 8.0 0.00 1.30 0.20 60 1012.9
20260506173333 11 345 4.8 8.0 0.00 1.30 0.20 58 1012.7
20260506172838 11 297 4.8 6.4 0.00 1.30 0.20 56 1012.7
20260506172331 11 296 3.2 8.0 0.00 1.30 0.20 58 1012.9
20260506171839 12 297 4.8 8.0 0.00 1.30 0.20 54 1012.8
20260506171352 11 296 4.8 8.0 0.00 1.30 0.20 60 1012.8
20260506170833 11 296 4.8 6.4 0.00 1.30 0.20 57 1012.9
20260506170346 11 308 3.2 6.4 0.00 1.30 0.20 56 1012.9
20260506165833 11 305 3.2 6.4 0.00 1.40 0.20 58 1012.8
20260506165347 12 304 3.2 8.0 0.00 1.40 0.20 57 1012.8
20260506164833 12 303 3.2 9.7 0.00 1.40 0.20 56 1012.7
20260506164326 12 302 1.6 9.7 0.00 1.40 0.20 60 1012.7
20260506163834 12 67 4.8 11.3 0.00 1.40 0.20 55 1012.8
20260506163347 12 94 4.8 11.3 0.00 1.40 0.20 61 1012.9
20260506162825 11 47 3.2 8.0 0.00 1.40 0.20 59 1012.9
20260506162331 11 46 4.8 8.0 0.00 1.40 0.20 62 1012.7
20260506161839 11 32 3.2 4.8 0.00 1.40 0.20 60 1012.7
20260506161352 11 32 3.2 4.8 0.00 1.40 0.20 61 1012.9
20260506160831 11 30 0.0 8.0 0.00 1.40 0.20 65 1012.9
20260506160337 11 28 4.8 8.0 0.00 1.40 0.20 63 1012.9
20260506155834 11 18 3.2 6.4 0.00 1.40 0.20 64 1012.8
20260506155347 11 355 1.6 4.8 0.00 1.40 0.20 63 1012.8
20260506154853 11 355 1.6 8.0 0.00 1.40 0.20 64 1012.8
20260506154347 11 355 4.8 8.0 0.00 1.40 0.20 59 1012.9
20260506153834 11 355 4.8 9.7 0.00 1.40 0.20 66 1012.8
20260506153328 11 74 4.8 8.0 0.00 1.40 0.20 59 1012.7
20260506152837 11 81 3.2 6.4 0.00 1.40 0.20 64 1012.6
20260506152349 11 81 3.2 6.4 0.00 1.40 0.20 58 1012.8
20260506151829 11 83 3.2 6.4 0.00 1.40 0.20 60 1012.9
20260506151337 11 84 3.2 9.7 0.00 1.40 0.20 63 1012.9
20260506150852 11 81 1.6 9.7 0.00 1.40 0.20 60 1012.9
20260506150335 11 26 3.2 12.9 0.00 1.40 0.20 62 1012.8
20260506145832 11 51 3.2 9.7 0.00 1.40 0.20 62 1012.8
20260506145326 11 79 4.8 8.0 0.00 1.40 0.20 69 1012.8
20260506144835 11 57 3.2 9.7 0.00 1.40 0.20 66 1012.8
20260506144348 11 89 1.6 9.7 0.00 1.40 0.20 64 1012.8
20260506143827 11 89 3.2 9.7 0.00 1.40 0.20 61 1012.4
20260506143336 11 94 4.8 9.7 0.00 1.40 0.20 66 1012.5
20260506142844 11 39 6.4 9.7 0.00 1.40 0.20 61 1012.6
20260506142332 11 49 1.6 8.0 0.00 1.40 0.20 70 1012.5
20260506141837 11 55 4.8 8.0 0.00 1.40 0.20 72 1012.4
20260506141328 11 55 4.8 8.0 0.00 1.40 0.20 66 1012.6
20260506140834 10 120 3.2 8.0 0.00 1.40 0.20 68 1012.4
20260506140347 10 132 3.2 11.3 0.00 1.40 0.20 67 1012.4
20260506135841 10 137 3.2 11.3 0.00 1.40 0.20 67 1012.3
20260506135351 10 122 1.6 11.3 0.00 1.40 0.20 76 1012.1
20260506134839 10 103 1.6 6.4 0.00 1.40 0.20 75 1012.1
20260506134349 10 103 1.6 6.4 0.00 1.40 0.20 75 1012.0
20260506133826 10 76 3.2 8.0 0.00 1.40 0.20 74 1012.0
20260506133334 9 70 4.8 8.0 0.00 1.40 0.20 74 1012.1
20260506132839 9 78 3.2 9.7 0.00 1.40 0.20 75 1012.0
20260506132330 9 65 3.2 9.7 0.00 1.40 0.20 77 1011.9
20260506131839 9 128 4.8 11.3 0.00 1.40 0.20 75 1011.8
20260506131330 9 96 3.2 9.7 0.00 1.40 0.20 79 1011.7